User: anonymous   Login
Location: Newark
(48.0000°N, 67.0000°E)
Time: 02:41:34
(UTC+00:00)
Language:

S-56A Canister/Altair - Orbit

View from above orbital plane
View from above orbital plane
View from above satellite
View from above satellite

Ground track
Ground track

The orbit data is extracted from the following two-line orbital elements,

1    82U 61004B   20053.54610102 -.00000009 +00000-0 +16792-4 0  9999
2    82 038.8619 267.5602 1174910 244.1982 103.2974 12.26060687793584
Epoch (UTC): 22 February 2020 13:06:23
Eccentricity: 0.1174910
inclination: 38.8619°
perigee height: 633 km
apogee height: 2499 km
right ascension of ascending node: 267.5602°
argument of perigee: 244.1982°
revolutions per day: 12.26060687
mean anomaly at epoch: 103.2974°
orbit number at epoch: 79358

The dashed part of the orbit path shows where the satellite is in the earth's shadow,  

DLR